Wind_Speed
6 6 5 5 4 4 4 4 4 4 4 4 4 4 4 4 4 4 4 5 6 6 6 7 7 8 8 8 9 10 10 11 12 13 14 11 7 10 9 9 8 8 7 6 5 3 4 6 7 7 6 5 4 4 4 5 5 3 2 2 3 3 4 5 7 6 3 4 5 6 6 5 6 9 10 10 12 17 17 18 18 19 22 24 26 25 23 19
7 6 6 5 5 5 5 4 4 4 4 4 4 4 4 4 4 4 4 4 5 5 6 6 8 8 9 9 10 11 12 12 13 14 11 6 6 7 10 12 10 9 7 6 5 3 4 6 7 8 7 6 4 4 4 6 8 5 3 2 5 5 6 6 7 7 4 5 8 11 11 6 9 11 7 7 11 14 13 15 16 20 24 25 28 28 27 26
8 7 7 7 6 6 6 5 5 4 4 4 4 4 4 4 5 4 4 4 4 5 6 7 7 8 9 10 11 12 13 15 14 10 2 3 10 9 7 11 13 12 8 6 6 4 4 6 6 7 8 7 5 5 5 5 7 7 4 2 7 7 6 10 12 12 13 12 11 13 10 7 12 13 8 7 11 11 11 13 14 20 26 25 27 29 29 28
9 8 8 8 8 7 7 7 6 6 5 5 5 5 5 6 6 6 6 6 6 6 6 7 8 9 10 11 12 13 14 15 8 2 1 5 14 11 5 7 12 14 11 9 8 7 6 7 7 7 8 7 6 6 6 8 8 5 6 5 6 5 4 14 18 16 18 15 12 12 7 8 16 14 12 10 9 10 14 19 19 22 25 23 24 28 29 30
10 10 9 9 9 9 9 8 8 8 7 7 7 7 8 7 8 8 8 8 8 8 8 9 9 10 11 12 13 13 12 8 1 4 9 12 12 9 5 5 8 12 13 11 9 9 8 8 8 7 7 5 5 4 5 12 11 4 8 13 11 6 4 16 18 14 15 13 11 10 7 11 16 14 18 13 8 15 21 21 23 25 25 23 23 26 28 31
12 11 11 11 11 11 11 11 10 10 10 10 9 10 10 10 10 10 10 10 10 9 10 10 11 12 13 14 14 13 8 3 4 9 12 9 8 7 6 5 5 9 13 12 11 10 10 10 9 8 6 3 5 6 6 12 13 6 8 13 17 14 11 19 20 16 17 14 12 11 11 15 15 17 21 17 19 32 36 29 29 32 29 25 24 26 29 30
13 13 12 13 13 13 13 13 13 12 12 12 12 12 12 13 13 13 13 12 12 12 12 12 13 13 14 15 15 13 8 10 13 12 9 6 7 9 8 8 6 6 10 13 14 12 12 11 11 10 4 2 5 8 8 9 12 8 6 7 15 19 19 25 25 23 23 19 20 18 16 17 16 16 15 17 31 42 42 37 37 38 34 30 28 29 30 31
13 13 13 13 14 14 15 15 15 14 14 14 14 14 15 15 15 15 15 15 15 14 14 14 14 15 15 16 16 12 11 16 14 9 8 7 9 12 12 10 8 7 8 11 14 14 13 13 15 11 4 4 6 6 6 6 7 8 8 8 10 14 20 25 24 24 24 22 24 19 17 22 25 20 16 28 44 46 42 41 39 36 34 32 32 32 31 32
13 13 13 14 15 15 16 16 16 16 16 16 16 16 16 17 17 17 17 16 16 16 17 16 16 17 17 18 17 12 14 16 11 8 10 11 14 16 15 12 10 10 8 10 12 14 14 14 16 13 8 7 6 5 5 3 5 8 11 11 9 13 19 22 21 20 18 19 18 11 15 27 29 19 19 36 44 39 36 33 28 25 26 28 29 31 32 33
15 15 14 15 16 16 17 17 17 18 18 18 18 18 18 19 19 19 19 18 18 18 18 17 18 18 18 20 15 9 15 15 11 13 15 17 19 19 18 14 12 12 11 12 12 15 17 15 13 12 11 9 6 6 5 5 5 6 9 12 14 17 22 22 19 18 13 15 18 11 13 27 24 7 13 35 37 31 30 28 23 19 23 25 25 28 30 32
15 15 15 15 16 16 17 18 18 19 19 19 19 20 20 20 21 21 21 20 20 19 19 18 19 19 20 22 17 13 20 21 18 20 20 21 22 20 18 15 14 13 13 13 13 15 16 15 12 8 7 6 5 5 6 9 8 8 8 11 16 14 21 24 18 18 12 12 19 16 12 21 15 3 18 41 40 31 29 32 31 27 29 29 27 27 28 31
15 15 14 15 15 16 17 18 18 19 19 20 20 20 20 21 22 22 22 21 21 21 20 19 19 20 20 23 26 24 25 24 22 22 21 22 23 22 20 18 17 15 14 14 13 14 14 15 14 12 9 5 3 2 4 6 5 9 6 7 13 9 15 23 15 14 11 7 12 9 5 12 8 11 30 43 39 31 28 32 35 34 35 34 31 30 30 32
15 15 15 15 16 17 18 18 19 19 20 20 20 20 20 21 22 22 22 21 22 21 20 18 19 20 18 23 31 28 25 24 23 23 22 23 24 24 23 20 17 15 15 15 14 15 14 15 15 16 15 9 4 3 3 4 6 9 3 1 9 7 9 13 3 3 7 5 7 8 2 9 9 21 36 37 35 29 26 30 35 34 36 36 35 34 32 32
16 16 16 17 17 18 19 20 20 21 21 21 21 21 21 21 22 23 22 21 21 21 20 18 18 18 17 24 31 28 26 26 26 25 24 24 24 24 24 21 18 16 15 15 15 15 14 12 12 13 15 14 10 6 5 6 5 5 2 1 3 3 7 8 3 1 4 6 10 10 4 9 11 26 37 33 28 24 23 29 33 33 34 36 36 35 34 31
17 17 17 17 18 18 19 20 21 22 22 23 23 23 23 22 22 23 22 21 21 20 20 18 17 16 14 23 29 25 24 26 26 25 22 21 23 23 22 19 17 16 14 15 15 15 13 10 9 9 10 13 11 5 4 5 3 2 2 4 2 2 7 13 12 7 9 7 10 11 5 8 10 24 37 30 21 19 21 27 31 32 34 36 37 37 36 35
15 15 16 16 17 18 19 20 21 22 23 23 24 24 24 23 23 23 22 21 20 19 18 17 17 14 9 17 23 21 24 26 25 22 20 21 21 21 20 16 13 14 14 15 14 13 11 8 8 8 8 9 4 2 4 4 5 3 2 5 4 5 4 8 14 11 12 6 6 8 7 7 7 19 33 29 20 18 18 25 30 33 35 36 38 37 37 38
12 12 12 13 14 15 16 17 19 20 21 22 23 23 23 23 22 21 21 20 19 17 16 14 13 12 11 15 21 25 28 27 24 22 21 22 21 19 19 16 13 13 12 12 11 9 8 8 6 5 6 4 3 5 2 3 6 4 1 4 5 7 5 4 10 9 6 6 6 8 9 11 11 15 28 33 29 19 16 26 31 32 36 36 38 39 39 41
8 8 8 9 10 11 12 14 16 17 19 19 21 21 21 20 19 18 18 18 16 12 11 11 8 4 11 18 21 25 26 22 20 20 19 19 18 17 17 15 13 12 10 8 8 10 10 7 4 1 3 2 3 5 4 7 9 6 5 5 4 5 7 7 8 7 4 5 6 5 9 15 15 14 24 37 39 26 22 30 33 33 36 38 40 43 45 47
6 6 6 7 8 9 10 12 13 15 16 16 17 18 18 17 15 14 13 13 11 7 5 10 14 6 8 13 14 17 18 15 14 15 17 17 15 15 14 13 11 12 10 5 6 11 11 4 3 2 4 8 7 8 11 15 13 10 8 6 6 7 7 8 11 11 7 7 6 8 14 16 15 15 18 32 39 31 29 33 32 32 35 38 43 46 47 48
5 5 5 6 7 8 9 10 12 13 15 15 15 15 12 10 7 7 7 12 15 14 13 14 19 18 15 14 15 16 17 17 17 17 18 18 14 13 14 12 11 11 8 5 5 8 10 5 3 7 12 13 11 13 17 16 9 6 5 6 8 8 10 11 14 13 4 4 8 11 17 17 15 16 16 26 31 26 28 29 29 32 33 37 42 46 46 48
5 5 5 6 7 8 9 10 12 12 14 16 16 13 8 6 4 5 9 13 18 21 23 22 22 25 25 23 23 21 18 17 19 19 17 17 13 11 13 13 9 5 5 5 5 3 7 6 7 15 19 12 9 13 15 10 6 5 6 7 8 7 12 13 13 14 3 2 7 9 16 18 15 15 15 21 20 18 26 26 27 31 33 37 41 46 48 49
6 5 5 6 7 8 9 11 12 12 13 15 15 13 10 9 7 8 10 12 19 23 24 26 27 31 32 31 31 29 21 14 15 17 16 16 16 12 12 12 7 4 4 4 4 1 4 5 13 21 14 4 3 6 6 7 8 7 6 6 7 6 11 11 10 12 3 2 7 9 15 16 13 16 16 18 18 21 32 34 33 34 33 37 41 44 48 48
8 7 7 7 7 9 10 10 12 12 13 14 14 14 13 13 11 11 9 7 15 21 23 27 29 32 34 33 34 33 26 18 17 19 19 17 18 15 13 11 5 3 5 6 7 6 5 7 18 20 6 1 6 4 6 4 5 6 7 5 7 8 9 8 5 6 3 3 8 10 15 13 11 16 15 21 27 25 33 40 42 40 37 42 47 46 47 46
10 10 9 8 9 11 10 11 12 11 12 13 13 13 14 13 11 12 10 6 8 13 21 27 26 29 32 30 28 27 24 22 19 17 20 21 18 12 11 10 5 3 7 13 14 11 8 8 12 10 5 7 9 6 5 5 6 8 8 7 11 12 12 10 4 6 5 5 6 7 14 12 8 13 11 16 22 21 27 34 37 41 45 48 48 45 46 48
13 13 12 11 11 12 12 12 10 9 11 11 11 12 14 13 11 11 9 5 5 7 13 18 18 22 26 23 20 17 14 17 21 17 16 21 20 11 6 10 7 6 12 13 10 9 9 11 8 6 6 9 7 7 7 7 9 8 6 12 18 16 12 12 7 7 6 5 5 5 9 10 6 11 10 8 8 12 17 19 25 38 44 41 39 41 46 47
16 15 14 14 14 13 13 11 9 10 11 9 10 12 14 12 10 11 7 2 4 5 4 7 8 8 11 12 13 10 3 7 15 19 17 18 23 15 5 7 6 6 9 7 4 4 6 10 8 8 8 8 6 7 8 9 9 8 6 12 16 12 10 11 8 4 1 4 4 3 1 10 6 7 10 9 7 11 13 11 19 31 34 31 32 37 42 41
17 16 16 16 16 15 14 12 11 11 9 9 10 11 11 9 9 10 6 3 5 3 4 5 5 3 3 6 11 11 3 3 3 11 18 18 21 18 7 5 4 3 4 3 3 4 4 5 5 7 7 6 6 8 7 10 7 7 5 7 9 9 9 9 5 4 4 3 4 1 5 6 12 5 7 9 9 10 12 12 16 22 27 30 32 35 36 36
18 18 18 17 17 17 16 16 14 11 9 9 10 10 9 7 6 7 4 3 5 2 3 4 5 2 2 8 16 10 0 1 2 4 12 15 17 13 7 7 6 4 4 5 5 4 4 5 6 7 6 5 8 8 6 11 7 6 2 4 6 6 6 5 5 5 2 3 3 3 5 2 13 7 2 3 7 8 12 15 15 16 22 28 29 30 31 29
20 20 19 17 17 18 19 19 17 12 10 9 9 9 7 4 4 6 3 4 4 1 1 3 4 2 3 9 13 8 2 3 1 3 6 9 14 8 3 6 6 4 5 6 8 6 1 3 6 9 6 6 8 5 6 12 7 4 5 4 4 4 3 4 4 3 2 4 5 7 6 3 12 8 4 3 3 7 11 12 12 11 17 26 27 26 27 24
22 22 20 18 18 20 21 21 17 12 10 10 10 8 4 2 2 2 4 4 2 1 1 2 2 2 4 6 3 4 2 2 2 5 4 4 9 6 0 2 3 3 4 5 7 8 3 1 2 5 6 6 4 2 3 8 5 3 5 4 6 4 4 4 1 3 1 8 6 12 13 7 8 5 4 3 4 7 8 7 7 9 15 24 25 23 23 22
23 23 22 21 22 21 21 21 17 13 12 13 11 6 1 0 2 2 7 1 2 2 1 0 1 2 4 4 1 2 1 2 1 6 2 2 4 3 1 1 0 1 3 5 6 7 4 3 1 5 8 5 6 4 1 1 3 4 3 3 4 5 4 4 4 4 1 9 5 12 13 10 9 6 2 5 6 5 6 6 7 7 11 18 21 23 25 25
23 23 22 24 25 23 22 22 18 14 13 13 11 6 2 0 1 6 5 3 2 2 1 1 1 2 3 2 1 3 2 2 2 5 3 2 3 3 4 5 4 1 4 4 3 5 3 6 4 3 6 8 6 3 2 4 3 5 3 3 0 4 3 3 4 1 4 9 3 6 7 6 12 9 4 9 10 8 8 8 9 8 10 18 23 25 27 29
24 24 24 24 26 25 24 22 19 17 14 11 10 5 4 2 5 5 3 1 2 1 1 1 0 3 3 2 2 3 2 3 4 3 2 3 2 4 5 4 5 3 5 3 2 4 3 4 2 3 4 10 10 6 3 2 4 7 5 6 5 3 2 4 4 3 6 7 2 3 5 4 9 7 9 14 13 12 11 12 16 15 17 23 26 27 29 32
24 23 24 25 25 26 24 22 22 19 15 11 8 3 3 5 5 1 3 5 3 2 1 2 3 2 2 2 4 3 2 3 3 4 1 3 1 4 4 5 5 3 2 1 2 2 4 7 4 6 3 9 13 11 10 5 4 7 6 5 5 5 5 4 4 6 8 6 3 1 4 4 4 3 7 10 9 8 9 13 16 17 19 21 23 25 25 25
22 22 23 24 24 25 24 24 23 19 15 11 5 2 4 7 4 1 3 5 2 3 3 1 4 1 2 3 3 3 5 4 2 4 3 3 3 4 3 5 7 5 3 3 2 3 4 9 7 4 2 10 10 9 7 5 1 4 4 4 4 5 5 5 6 6 4 4 3 3 4 5 4 5 7 8 8 8 9 10 9 13 15 13 15 16 15 17
22 22 22 24 25 25 23 23 21 18 17 11 3 4 8 5 2 3 2 1 1 1 2 3 1 1 4 3 3 3 2 2 1 2 3 3 3 5 4 4 8 10 8 5 3 2 4 7 4 1 2 4 3 3 2 4 2 1 3 3 4 2 6 5 7 2 0 5 7 6 8 6 4 9 8 4 6 8 8 7 7 11 10 6 9 13 17 21
23 23 24 27 26 23 22 20 18 19 19 12 4 7 6 3 4 5 2 1 1 2 2 2 2 2 3 3 3 3 0 0 1 1 2 2 3 5 5 4 7 13 14 9 4 3 4 7 4 3 2 3 2 3 3 1 4 4 3 5 2 2 2 2 3 2 3 9 8 8 14 11 6 8 4 6 5 5 6 6 5 6 6 7 12 18 23 25
22 22 26 29 26 23 22 18 17 20 17 9 8 10 4 3 6 6 4 3 1 2 2 3 3 1 3 3 3 2 2 2 2 2 2 2 3 4 4 4 5 10 15 12 4 2 1 6 6 2 3 3 2 1 3 3 2 4 3 2 2 1 3 2 2 3 6 10 7 8 14 12 8 10 7 5 7 8 8 6 4 4 7 11 16 22 28 30
18 16 20 21 19 20 22 20 19 21 13 4 9 10 3 4 8 10 12 9 3 2 2 5 5 3 4 5 4 3 4 4 3 2 3 3 4 3 4 1 2 5 9 8 5 3 0 3 7 1 3 1 3 1 3 3 1 1 1 2 1 3 3 2 3 2 5 9 8 8 10 9 9 10 9 7 9 9 8 5 5 8 8 11 18 26 31 33
12 9 11 10 8 13 19 20 20 18 9 4 9 7 2 3 5 11 18 14 6 5 5 5 6 6 6 6 6 5 4 4 5 4 3 4 5 5 4 3 2 2 2 3 3 3 1 3 7 3 1 2 2 4 6 6 4 2 3 4 4 3 1 2 2 2 3 7 7 8 10 8 6 8 11 9 7 8 8 7 7 8 10 17 24 27 28 29
9 5 9 9 7 12 18 19 14 9 4 6 9 7 6 6 5 8 16 17 11 8 6 4 5 7 7 7 6 4 3 3 6 6 4 5 6 6 7 8 7 4 3 3 1 3 2 3 5 4 3 6 9 7 7 8 6 5 5 6 6 6 3 5 7 5 5 6 7 9 10 8 4 6 14 12 5 7 8 6 5 10 17 23 26 25 25 27
10 6 6 7 9 15 20 15 8 6 5 7 8 7 7 8 7 7 11 14 10 7 6 5 6 7 7 8 7 4 4 3 5 6 5 7 10 8 7 10 12 8 4 2 4 6 5 3 4 7 7 10 13 7 6 7 3 2 3 3 4 5 5 7 10 7 6 7 6 9 11 7 5 7 13 13 9 8 9 9 8 12 20 24 25 27 28 30
11 12 8 7 10 20 19 8 6 7 4 7 9 9 8 6 5 5 6 9 7 5 5 4 6 8 8 8 8 6 6 5 7 9 8 7 9 12 14 14 11 5 2 3 3 2 3 2 3 6 5 6 10 8 5 4 1 1 4 5 7 7 7 9 7 4 5 7 6 9 10 5 5 8 10 12 15 18 20 21 16 14 20 22 21 24 27 31
8 15 15 10 12 20 16 5 5 7 6 7 8 9 11 8 6 7 6 6 6 5 4 5 6 7 7 5 6 7 6 5 8 10 9 6 5 12 19 19 13 7 5 5 4 4 4 2 2 4 7 6 7 8 6 2 3 4 7 9 10 9 9 9 6 3 6 9 10 11 11 5 2 5 7 9 13 16 21 31 31 25 24 24 24 26 27 27
4 9 14 15 17 20 16 9 7 5 5 9 10 10 11 8 10 15 13 8 9 7 4 5 4 4 4 4 5 7 6 6 7 5 5 4 3 4 7 9 9 7 6 6 3 1 4 4 4 6 10 9 9 9 6 2 3 3 5 10 12 12 14 11 7 8 9 11 13 12 11 9 6 6 8 11 15 17 21 31 39 37 32 30 28 23 17 14
3 4 6 9 15 20 21 20 16 7 4 8 8 8 12 11 10 14 13 11 14 13 8 7 6 4 3 4 6 8 8 9 8 5 5 5 3 1 8 13 8 6 9 10 7 3 2 4 6 11 12 11 13 13 9 5 5 5 5 9 10 11 15 12 8 11 11 11 13 12 13 15 12 10 13 15 16 18 20 23 30 37 40 33 22 20 23 22
2 2 2 2 7 13 16 18 15 8 6 9 5 3 11 12 7 8 9 8 12 15 9 6 8 8 6 6 8 9 9 10 9 9 9 6 3 4 12 12 9 13 12 8 7 3 2 3 8 13 15 14 15 17 16 15 14 13 13 13 12 11 12 12 13 15 14 13 14 12 14 18 14 11 15 17 16 17 17 17 21 27 30 27 25 27 26 25
3 3 3 1 2 5 6 7 7 4 5 8 4 3 10 13 9 6 6 4 6 10 7 5 7 8 6 5 5 4 5 8 8 6 4 2 3 6 10 6 4 13 14 8 9 4 3 4 7 12 15 16 16 18 18 18 17 17 17 18 17 17 18 18 20 20 16 15 16 14 17 21 18 14 15 13 10 11 12 15 20 24 27 27 27 27 27 28
5 5 6 4 3 4 4 6 8 5 4 5 3 4 8 12 11 7 2 2 3 5 7 5 2 2 2 2 1 0 1 5 5 1 3 4 3 3 5 3 1 9 12 7 7 3 3 3 4 8 12 12 13 15 16 17 17 18 18 19 18 19 21 22 23 22 20 21 21 20 23 23 15 11 12 13 15 16 19 24 27 28 29 27 26 27 27 28
5 4 5 6 6 7 7 7 7 5 4 5 3 4 6 8 9 6 2 2 2 3 3 1 4 4 3 3 2 1 2 1 1 1 2 4 4 2 2 3 4 7 8 4 3 4 4 3 5 7 8 9 10 12 12 13 15 16 17 18 18 20 21 21 19 18 19 21 21 21 23 16 8 10 10 16 21 21 22 23 21 23 27 28 27 28 27 28
11 8 7 7 5 5 5 4 4 3 3 4 3 3 5 6 5 3 2 2 1 2 3 4 4 2 2 2 0 3 2 2 2 2 2 1 3 5 4 4 6 8 8 4 2 3 3 3 6 7 7 7 8 10 11 11 12 14 14 16 18 18 16 15 15 15 15 17 18 18 14 6 7 10 9 13 18 17 15 15 15 20 26 26 26 27 28 29
12 11 8 5 4 5 4 2 2 3 4 2 1 3 2 3 7 7 3 1 7 10 8 8 5 3 2 2 2 2 2 1 4 8 9 10 13 15 14 15 13 8 5 4 4 3 3 4 5 6 7 8 10 12 12 11 11 12 13 15 17 16 16 17 16 14 11 9 8 7 2 2 4 8 10 13 14 12 14 15 12 17 24 24 25 27 27 30
Wind_Direction
311 314 316 322 325 328 332 340 347 355 2 2 5 9 9 11 13 10 10 8 6 5 0 358 355 352 350 342 338 333 327 321 314 304 301 311 295 261 250 243 250 253 249 251 244 243 221 198 202 203 210 217 227 236 221 214 191 169 106 141 241 205 202 195 192 207 191 261 285 314 286 225 259 270 258 269 257 252 255 249 244 244 246 251 257 259 259 260
299 303 304 307 306 309 313 317 324 331 338 342 348 347 348 354 352 356 1 2 4 0 359 358 355 353 350 346 344 340 334 327 315 305 306 334 333 287 253 243 244 247 249 246 239 242 223 211 210 204 209 213 225 226 211 210 194 182 129 164 233 205 212 210 204 219 218 261 285 299 294 248 252 273 272 265 255 252 254 251 243 245 251 253 256 258 259 258
292 295 295 296 294 295 296 298 303 304 311 316 319 322 325 327 328 337 338 343 349 347 347 346 345 344 341 340 338 339 339 332 319 308 270 66 2 343 280 251 243 241 243 243 233 221 222 224 220 208 210 214 222 220 208 199 200 204 175 216 245 216 235 253 246 248 255 270 289 295 290 259 265 271 258 252 266 263 246 248 240 240 255 262 260 258 258 258
291 293 293 293 291 289 287 288 289 289 293 295 299 302 302 305 308 311 314 320 324 326 328 328 331 330 329 330 331 333 338 334 324 7 61 324 337 338 314 269 245 237 235 238 229 216 222 223 219 210 208 219 221 219 218 205 201 193 178 210 239 193 228 260 257 262 271 277 273 279 294 285 283 272 247 252 284 275 246 253 254 250 263 273 268 263 259 257
294 294 294 293 291 288 287 286 284 284 284 285 289 290 292 294 294 297 300 302 305 310 313 316 318 320 319 321 322 326 342 350 57 25 334 319 332 334 320 294 253 238 230 228 228 221 222 220 218 208 209 227 200 194 231 213 198 181 212 229 237 201 222 264 267 272 278 281 271 274 289 288 289 273 252 243 243 265 265 268 273 271 275 279 275 268 261 256
295 296 296 295 292 291 289 287 286 285 284 285 286 287 289 290 291 293 293 295 298 300 304 307 310 313 313 315 315 318 331 312 290 324 322 321 339 343 340 323 284 247 232 226 230 228 225 222 218 208 207 232 195 194 236 216 200 221 245 238 246 239 240 265 270 273 276 277 274 274 279 284 287 280 268 243 239 267 277 277 278 280 281 280 274 266 259 255
291 293 294 294 293 291 290 289 288 287 287 286 286 287 288 289 292 292 293 297 297 299 302 303 306 308 309 310 309 309 296 276 295 309 306 312 322 328 330 319 306 264 243 234 232 229 228 224 219 216 203 256 228 215 243 229 203 225 263 245 253 249 248 264 269 271 274 274 275 278 282 279 271 277 282 258 260 274 281 280 279 281 280 276 269 262 259 257
285 287 289 290 290 290 289 289 289 288 288 287 287 286 286 287 288 289 292 293 296 299 301 302 305 306 307 308 305 300 282 284 297 299 290 297 303 313 314 304 295 278 262 248 240 232 231 226 223 222 210 238 233 215 235 249 216 217 247 251 256 256 260 270 273 272 271 271 275 277 274 269 266 272 280 273 275 280 282 283 283 283 280 272 266 261 258 257
281 283 284 286 287 287 288 288 289 288 288 287 287 286 285 286 285 286 286 287 291 293 295 299 301 302 305 302 301 293 283 289 293 289 295 295 297 304 302 295 287 280 273 256 242 232 229 229 229 227 237 247 238 233 218 232 238 215 235 258 269 272 279 282 278 273 271 269 268 265 267 271 274 279 275 272 278 286 288 287 288 286 279 272 266 262 259 258
278 279 281 282 282 284 285 286 286 287 287 286 286 286 286 285 285 285 284 285 285 286 289 291 293 296 297 295 291 277 282 289 289 292 296 293 294 296 294 291 284 278 272 260 244 235 233 236 239 234 247 257 245 242 211 199 240 249 263 278 279 283 290 287 278 276 272 269 259 233 256 271 274 283 269 274 279 284 287 288 289 284 279 278 272 266 262 260
278 279 279 279 280 280 281 282 283 283 283 283 283 283 284 284 285 284 284 284 283 284 284 284 287 287 288 286 269 257 281 288 290 292 291 290 290 289 288 284 277 270 263 261 252 248 243 240 242 232 240 250 244 245 228 230 250 285 309 303 290 299 300 287 277 275 265 269 257 224 244 274 274 218 251 272 280 277 279 284 285 281 279 280 275 272 268 264
276 277 278 278 279 279 280 281 280 281 281 281 281 280 280 280 281 281 282 283 282 281 280 280 281 278 281 277 264 267 284 286 286 287 286 286 285 284 284 277 270 263 255 256 253 253 248 240 235 230 237 238 261 291 246 250 283 304 330 318 297 328 310 286 279 270 237 249 258 204 241 281 260 235 252 270 279 274 274 279 282 282 281 280 277 274 271 272
275 275 277 278 279 280 280 281 280 281 281 281 281 279 279 278 277 278 277 278 278 277 277 274 272 272 270 267 270 278 284 282 281 282 281 281 281 281 278 272 266 257 253 252 249 251 248 245 237 236 246 244 251 272 274 318 332 305 326 352 302 339 308 283 302 260 213 228 228 161 238 269 253 258 262 272 277 273 270 273 279 282 283 283 280 276 273 276
279 280 281 281 281 282 282 282 282 281 281 282 281 280 279 278 277 277 276 275 274 273 273 271 268 266 257 264 276 281 279 279 277 276 278 277 276 276 272 269 263 253 251 249 249 250 245 246 240 238 246 245 251 270 305 337 332 297 306 301 304 316 283 289 357 153 230 253 193 165 253 253 259 272 272 276 277 272 265 268 276 280 283 285 282 279 275 274
284 287 288 288 288 287 287 286 286 285 284 284 283 281 279 278 277 276 277 275 272 271 270 268 265 258 253 267 276 278 276 274 275 277 276 271 269 268 267 265 259 250 246 245 246 247 242 235 228 230 246 250 254 280 335 338 340 10 276 284 302 218 268 299 300 227 224 257 173 164 254 255 255 270 275 281 278 271 263 266 275 278 282 283 280 277 274 274
287 290 292 294 294 293 293 293 292 291 290 291 289 287 285 282 279 277 276 273 271 269 266 266 261 248 247 272 273 272 271 270 275 278 269 264 263 260 260 257 250 241 237 239 242 243 234 220 222 232 248 253 229 108 37 344 317 342 212 249 260 246 262 306 298 250 214 223 177 193 240 263 255 264 276 285 283 274 264 267 273 275 278 279 279 275 271 273
289 293 295 298 298 298 299 298 298 297 297 298 295 293 292 289 285 280 276 271 268 261 257 258 253 242 241 261 269 269 271 272 274 271 263 262 260 256 251 242 233 229 228 229 231 223 206 196 203 236 251 249 117 107 64 295 273 292 215 230 240 246 251 276 298 288 211 178 207 231 238 253 259 267 279 284 284 280 264 267 270 272 274 274 275 274 271 271
291 296 299 302 302 305 307 305 305 305 305 307 304 302 301 298 294 285 276 268 259 248 249 234 208 226 250 248 260 270 275 276 270 263 258 254 250 247 239 232 225 215 207 205 206 191 184 184 172 224 288 230 133 126 172 232 237 235 224 237 251 245 246 249 268 282 262 208 211 239 251 254 263 272 277 278 280 279 266 268 269 269 271 272 272 271 270 271
296 302 306 308 309 313 314 313 313 313 312 312 311 309 307 305 300 290 276 256 233 216 236 206 189 204 252 249 263 271 271 267 259 251 247 246 242 233 223 219 210 189 173 163 194 185 170 143 119 157 256 229 190 163 198 225 227 224 222 237 259 256 250 245 249 254 269 278 252 248 258 258 264 267 268 273 277 278 272 270 270 269 269 270 271 270 269 269
302 307 311 312 315 320 323 321 321 322 319 319 322 319 316 320 311 295 277 250 238 241 250 228 218 234 250 260 270 269 265 260 255 248 246 252 243 220 201 186 175 175 172 159 188 188 169 166 163 194 231 227 194 188 211 228 235 233 227 241 250 256 263 255 258 261 251 282 258 243 261 265 262 262 262 267 273 278 276 272 268 267 266 267 269 269 269 268
302 305 311 316 317 324 329 330 332 335 334 334 336 338 347 356 328 300 299 278 268 262 258 254 245 247 254 259 260 262 266 265 259 251 249 249 228 201 185 166 153 179 198 154 136 162 172 187 207 216 231 228 191 200 218 233 248 246 235 254 257 245 261 259 263 272 242 215 257 242 261 267 262 263 262 263 265 264 266 268 268 266 266 265 266 268 269 270
293 296 306 314 316 324 329 335 336 337 343 342 340 349 360 351 325 305 307 289 281 275 266 263 255 250 255 258 256 255 258 265 261 249 243 228 203 192 179 165 174 191 156 131 113 154 198 214 226 227 236 244 203 194 193 222 233 238 238 261 266 248 268 268 258 274 269 190 267 264 265 265 260 260 256 254 251 248 256 262 265 266 265 264 264 265 268 270
288 290 299 306 314 318 320 330 331 331 341 342 340 350 354 344 335 322 313 282 280 281 270 263 256 251 254 256 254 249 244 249 253 246 239 216 191 193 185 163 180 165 138 186 194 195 205 227 234 235 235 219 248 201 149 219 234 222 227 244 262 254 263 265 256 296 320 231 270 287 278 270 254 255 251 247 248 248 254 259 263 263 261 262 262 263 266 270
283 284 289 295 304 308 310 321 323 325 334 338 340 347 349 342 337 329 315 280 277 278 267 261 254 250 251 252 249 243 236 237 243 245 237 215 189 185 191 169 148 157 194 209 211 218 228 242 238 227 198 203 239 237 189 244 254 225 215 219 250 252 247 253 282 343 332 281 293 313 294 280 221 230 246 245 246 248 250 255 261 262 258 260 262 264 266 268
279 280 282 286 291 296 302 312 314 319 328 332 335 340 345 341 337 338 330 300 280 273 262 255 246 247 247 246 242 236 232 236 239 241 236 219 201 183 178 177 169 205 218 214 224 240 249 254 232 180 201 209 218 237 211 216 250 253 215 215 239 252 258 265 294 350 347 304 325 10 313 295 193 196 235 247 239 244 244 245 253 256 257 259 262 265 268 270
273 275 278 281 287 290 296 303 304 313 322 322 328 338 342 342 348 348 348 345 286 261 228 221 224 235 237 236 225 202 201 255 245 235 228 224 214 202 173 177 192 226 213 203 234 248 245 242 213 183 209 199 192 242 219 198 242 275 228 212 233 249 261 264 274 317 285 257 297 58 347 289 280 195 215 230 224 238 242 238 246 253 258 262 263 267 271 275
273 276 278 280 285 287 289 292 291 305 314 309 320 336 340 346 1 360 2 350 286 222 156 182 186 177 214 209 178 157 173 267 240 213 208 208 208 203 202 194 203 234 175 142 269 240 208 217 200 193 200 174 191 245 215 177 213 269 238 199 208 225 240 241 229 223 231 275 305 104 133 276 288 250 195 210 211 237 253 247 249 252 256 261 264 269 274 279
275 279 284 287 288 286 285 283 285 297 301 297 309 321 334 346 358 15 37 305 285 149 125 185 178 190 218 172 172 167 272 271 97 185 195 197 198 196 222 215 188 212 169 155 240 239 173 196 199 179 170 184 212 231 179 154 197 254 212 166 178 195 211 182 172 201 244 346 296 221 136 245 279 275 115 191 205 233 252 246 250 254 256 260 262 267 273 279
269 273 280 286 284 280 281 281 284 290 285 284 294 302 324 338 353 36 89 252 292 69 120 185 179 213 140 152 186 212 338 24 73 153 163 188 197 186 239 225 188 219 223 201 233 255 194 198 190 161 160 211 217 222 161 159 201 228 119 96 81 81 81 106 150 159 78 305 248 196 164 219 277 275 89 73 205 228 243 243 249 257 266 269 266 267 272 278
263 267 272 273 266 267 273 277 281 283 274 269 275 288 315 312 28 48 226 242 321 329 153 164 204 192 126 131 211 256 274 336 65 130 126 152 192 195 234 232 179 197 255 261 251 255 244 112 128 172 193 201 163 103 162 171 186 141 100 51 31 21 27 55 46 88 52 279 231 183 183 189 272 278 132 163 221 224 238 248 257 259 263 266 269 275 280 281
260 262 264 262 259 260 265 269 275 277 265 259 263 270 278 345 76 191 233 244 10 283 110 150 295 83 109 122 247 277 220 291 111 145 154 109 168 202 95 208 156 80 315 289 272 273 244 180 189 204 194 156 106 95 29 87 133 126 101 60 22 332 3 27 347 53 195 266 223 181 181 180 234 259 183 249 268 246 232 230 248 256 255 266 282 289 290 291
260 261 260 258 259 260 260 261 266 266 257 250 246 233 179 17 224 216 245 14 359 256 125 216 257 108 109 87 222 223 163 249 203 155 171 151 161 193 196 200 180 338 300 250 267 309 252 216 208 170 184 172 144 131 345 1 109 129 119 128 151 304 338 348 313 86 216 257 242 170 167 200 245 255 247 264 274 255 228 217 231 244 261 277 289 287 286 291
260 258 257 256 257 260 260 260 260 255 252 246 230 200 125 205 240 211 217 295 239 226 105 188 108 117 129 79 260 225 166 222 199 163 168 135 167 237 249 226 169 207 263 220 317 319 290 274 165 125 233 196 168 164 222 252 177 161 152 156 174 217 243 261 263 259 258 266 282 156 164 239 277 272 230 233 245 246 233 232 244 251 263 275 282 283 285 290
259 257 257 254 254 257 259 261 262 258 256 245 218 151 118 217 240 114 176 225 252 334 12 104 68 57 145 205 245 204 203 246 168 146 157 110 170 259 260 241 196 183 230 214 315 226 250 289 199 169 225 183 178 201 202 167 160 186 165 148 184 193 193 217 227 249 265 274 296 184 178 218 266 280 232 230 258 277 249 237 246 255 264 274 283 289 295 301
260 258 256 253 252 252 253 256 258 257 247 230 203 168 209 226 238 146 206 230 272 307 308 55 92 49 269 250 266 225 217 249 113 120 172 166 195 219 208 218 199 163 150 212 262 168 214 269 238 200 153 156 180 221 191 121 118 223 127 113 230 208 178 224 246 236 251 289 275 223 224 229 235 270 263 252 270 280 259 248 258 273 280 289 294 300 314 327
261 258 256 255 251 249 252 251 253 251 229 202 174 224 228 234 204 187 206 217 205 206 327 333 121 181 273 261 291 288 208 222 89 117 210 209 219 219 214 225 197 182 181 190 221 203 231 268 249 124 67 157 189 274 182 152 203 215 115 184 240 158 149 231 268 264 229 269 254 240 259 273 290 285 282 276 268 264 271 282 289 289 290 289 297 311 321 327
261 259 256 253 249 249 250 244 244 240 214 186 205 230 220 233 196 190 200 136 158 102 78 295 234 193 254 256 274 292 12 215 195 159 217 241 245 209 202 241 204 190 202 208 223 244 250 275 261 140 172 263 304 327 311 211 146 134 171 220 242 58 123 188 263 303 255 254 250 247 261 272 283 276 310 25 339 290 285 295 299 294 283 285 308 320 319 322
267 267 263 257 252 248 242 236 234 225 203 185 237 234 211 213 199 183 187 183 125 63 100 228 240 212 228 242 266 227 179 193 164 166 224 237 239 183 164 246 211 194 217 222 237 290 252 276 285 141 166 277 1 9 301 315 139 153 219 258 102 206 245 167 182 230 241 252 252 241 254 265 261 257 271 296 283 276 271 273 285 266 258 284 310 319 319 323
274 277 273 265 255 244 235 228 221 209 193 191 238 233 209 206 210 202 207 212 194 164 220 227 222 240 229 224 249 232 198 197 176 185 216 219 236 187 140 226 220 211 226 208 210 270 117 248 271 235 143 345 11 136 215 264 301 87 317 325 98 185 208 187 189 191 231 253 260 247 247 251 253 265 271 247 237 251 249 232 247 248 251 290 311 316 319 322
270 270 271 262 245 236 223 213 206 194 184 224 231 234 231 216 232 219 214 215 202 196 225 224 207 228 242 237 246 248 231 214 201 201 206 216 247 240 202 186 155 190 213 171 218 277 354 246 257 274 30 336 280 200 194 220 222 177 217 232 225 212 205 252 228 172 221 250 254 251 246 238 246 282 277 250 218 228 226 209 232 263 292 307 309 309 309 311
239 245 264 244 224 219 199 190 196 191 199 238 233 244 251 245 258 235 219 219 220 222 226 215 209 230 249 255 246 226 217 225 218 216 214 218 236 245 224 199 183 165 105 71 263 228 214 235 240 263 279 263 253 221 188 203 196 176 200 213 221 221 234 271 252 209 208 237 243 250 254 243 221 275 277 267 225 202 211 215 260 294 301 300 296 294 298 302
206 230 259 221 216 207 184 178 203 207 208 227 231 241 240 239 246 241 223 218 222 236 236 226 226 232 245 254 251 227 213 227 221 218 231 229 222 226 229 208 199 196 170 174 218 194 171 176 218 244 250 255 266 256 187 193 180 159 205 215 233 219 197 235 247 238 230 238 244 253 259 247 202 236 272 280 276 263 249 245 261 276 276 276 280 287 295 299
209 234 233 195 211 206 189 185 223 208 217 241 240 241 236 233 241 234 216 209 210 220 226 226 230 232 233 235 240 235 226 223 217 221 241 245 225 228 235 221 200 196 213 244 249 185 138 137 217 254 271 269 278 280 234 198 155 270 246 220 227 231 223 237 251 278 268 253 256 259 258 243 190 226 262 283 290 292 286 278 274 269 268 269 272 279 288 293
238 252 243 221 215 208 196 195 221 212 230 243 243 245 245 244 240 235 223 196 189 198 225 234 228 234 233 230 235 235 234 231 227 231 236 243 236 229 233 228 213 198 197 213 216 192 202 204 184 258 280 273 274 279 271 228 183 228 242 229 228 235 247 260 269 293 272 247 245 258 260 253 235 260 281 289 286 288 288 287 287 283 283 285 284 285 289 294
277 269 251 234 222 219 221 229 238 237 233 239 245 245 246 250 241 240 240 224 205 200 224 242 235 238 233 242 259 248 239 236 244 255 238 245 272 233 250 268 247 228 248 277 313 174 228 242 209 242 261 257 263 264 252 221 198 221 242 234 231 228 232 247 255 251 253 238 233 247 258 255 250 264 274 272 274 277 280 286 289 288 290 292 296 311 338 354
291 282 260 238 224 228 237 240 244 253 240 244 249 238 239 247 248 241 237 234 227 221 231 247 252 266 231 227 258 257 246 237 239 255 250 260 276 331 351 347 345 346 335 333 1 58 224 268 237 242 251 247 259 265 262 274 265 257 259 240 232 229 229 236 245 248 258 259 248 247 261 265 257 251 258 257 260 267 270 278 284 289 295 304 328 12 33 33
270 267 236 241 233 235 242 245 245 244 243 248 244 236 244 247 257 245 225 223 223 219 228 244 233 236 232 230 247 254 250 243 243 248 251 266 292 316 336 348 12 18 13 8 15 53 191 264 249 251 259 255 263 273 276 282 274 265 269 260 253 251 240 236 244 249 256 265 261 253 260 268 264 252 255 256 258 264 269 277 287 298 314 340 16 31 27 20
218 268 250 248 264 241 241 259 278 285 266 260 248 253 256 251 255 248 224 237 228 209 216 242 228 229 242 254 251 249 254 253 257 259 258 327 350 327 334 345 31 24 24 13 3 19 202 257 249 251 265 263 265 271 269 272 271 266 266 262 259 258 254 249 251 252 252 257 264 267 265 267 272 274 272 279 299 308 318 334 346 355 3 13 22 24 21 18
239 278 279 284 294 278 283 310 324 325 292 285 272 237 251 253 255 256 254 314 294 219 220 228 185 125 66 20 311 259 303 264 265 315 51 18 342 320 335 316 341 24 22 0 342 323 232 272 267 262 275 276 273 273 272 273 274 272 269 266 263 259 257 257 258 260 262 263 268 274 271 269 283 309 322 350 6 8 8 10 14 16 12 11 13 16 16 12
257 276 306 317 300 284 288 292 299 308 295 286 266 230 242 251 256 268 259 224 266 280 253 211 76 86 109 85 73 264 285 278 255 324 34 14 355 5 354 311 310 346 349 335 320 305 285 312 330 312 298 289 283 279 276 274 273 275 276 274 271 267 263 264 267 269 270 270 273 276 274 277 324 358 358 8 13 15 14 11 14 11 6 6 7 7 6 5
252 262 299 319 300 282 287 278 276 293 276 250 243 263 269 260 272 309 310 252 223 82 72 59 42 28 117 108 87 236 215 130 147 245 265 254 279 290 285 278 298 319 321 297 262 309 308 299 319 312 286 279 285 279 281 287 285 284 283 279 276 274 270 266 265 264 265 272 277 281 282 303 355 350 353 7 11 13 6 359 5 7 5 4 2 359 0 360
251 260 271 276 273 272 284 320 320 283 261 245 317 332 313 354 18 11 324 4 88 94 68 38 16 356 9 311 277 183 156 318 290 281 280 259 253 260 254 249 254 255 273 294 276 258 269 277 292 293 285 286 283 278 284 295 291 279 271 268 267 269 271 269 267 269 277 288 280 273 308 25 346 349 5 4 3 4 351 343 354 5 4 2 359 356 355 356
Height
1558 1558 1558 1558 1557 1557 1557 1556 1556 1556 1555 1555 1554 1554 1553 1552 1552 1551 1551 1550 1550 1549 1548 1548 1547 1547 1546 1546 1545 1544 1544 1543 1542 1541 1541 1541 1541 1541 1541 1541 1542 1542 1542 1543 1543 1543 1543 1543 1543 1543 1544 1544 1545 1544 1545 1545 1546 1547 1549 1552 1551 1551 1548 1540 1538 1536 1532 1530 1527 1526 1525 1526 1525 1523 1522 1521 1520 1518 1518 1516 1516 1516 1514 1513 1512 1512 1511 1511
1558 1558 1557 1557 1557 1557 1556 1556 1556 1555 1555 1554 1554 1553 1553 1552 1552 1551 1551 1550 1550 1549 1549 1548 1547 1547 1546 1545 1544 1544 1543 1542 1541 1540 1539 1540 1540 1539 1539 1540 1540 1541 1541 1542 1542 1542 1542 1542 1542 1543 1543 1544 1544 1544 1544 1545 1545 1546 1549 1551 1547 1544 1539 1533 1533 1531 1530 1529 1526 1526 1526 1525 1524 1523 1522 1520 1518 1517 1516 1514 1515 1514 1512 1512 1510 1510 1510 1509
1558 1557 1557 1557 1556 1556 1556 1555 1555 1555 1555 1554 1554 1553 1553 1552 1551 1551 1551 1550 1550 1549 1549 1548 1547 1547 1546 1545 1544 1543 1542 1541 1540 1539 1539 1539 1539 1538 1538 1538 1539 1540 1540 1541 1541 1541 1541 1542 1542 1542 1543 1543 1543 1544 1544 1544 1544 1544 1547 1548 1541 1537 1534 1531 1531 1529 1528 1527 1526 1526 1525 1524 1523 1522 1521 1518 1516 1515 1514 1512 1513 1512 1509 1509 1509 1509 1508 1507
1557 1557 1556 1556 1556 1555 1555 1555 1555 1554 1554 1554 1553 1553 1552 1552 1551 1551 1550 1550 1550 1549 1549 1548 1547 1547 1546 1545 1544 1543 1542 1540 1538 1538 1538 1538 1538 1538 1537 1537 1537 1538 1539 1539 1540 1540 1540 1541 1541 1541 1542 1542 1542 1543 1543 1542 1542 1542 1543 1541 1535 1534 1533 1529 1528 1528 1527 1527 1526 1525 1525 1523 1521 1520 1518 1516 1516 1510 1507 1509 1509 1508 1507 1507 1507 1507 1506 1505
1556 1556 1556 1555 1555 1555 1554 1554 1554 1554 1553 1553 1553 1552 1552 1551 1551 1550 1550 1550 1549 1549 1548 1548 1547 1546 1545 1544 1544 1543 1543 1541 1538 1538 1539 1538 1537 1537 1537 1536 1536 1537 1537 1538 1539 1539 1539 1540 1540 1541 1541 1541 1542 1542 1540 1539 1540 1540 1537 1534 1531 1533 1531 1526 1526 1528 1526 1526 1525 1525 1524 1522 1519 1517 1514 1516 1516 1504 1501 1506 1505 1504 1504 1505 1505 1504 1504 1502
1555 1555 1555 1554 1554 1554 1553 1553 1553 1553 1552 1552 1552 1551 1551 1550 1550 1550 1549 1549 1549 1548 1548 1547 1546 1546 1545 1544 1543 1542 1543 1542 1538 1538 1538 1537 1537 1536 1536 1536 1536 1536 1536 1537 1538 1538 1539 1539 1540 1540 1540 1540 1540 1539 1537 1537 1538 1537 1533 1531 1530 1531 1528 1524 1525 1526 1525 1525 1524 1524 1522 1520 1518 1514 1510 1512 1510 1499 1498 1504 1503 1502 1502 1502 1502 1501 1500 1499
1554 1554 1554 1553 1553 1552 1552 1552 1552 1552 1551 1551 1551 1550 1550 1549 1549 1548 1548 1548 1548 1547 1547 1547 1546 1545 1544 1543 1542 1541 1542 1540 1537 1538 1537 1537 1536 1536 1536 1535 1535 1535 1535 1536 1536 1537 1538 1538 1539 1539 1539 1539 1538 1537 1536 1536 1537 1536 1532 1529 1528 1528 1526 1523 1524 1524 1524 1523 1522 1523 1521 1518 1516 1512 1507 1506 1502 1497 1498 1500 1500 1499 1499 1499 1498 1497 1496 1496
1552 1552 1552 1552 1551 1551 1551 1551 1550 1550 1550 1550 1549 1549 1548 1548 1547 1547 1547 1546 1546 1546 1546 1545 1545 1544 1543 1542 1541 1540 1539 1538 1537 1537 1536 1536 1535 1535 1535 1534 1534 1534 1534 1535 1535 1536 1537 1537 1537 1538 1538 1537 1536 1535 1535 1535 1535 1535 1531 1527 1527 1526 1524 1522 1522 1522 1522 1521 1520 1521 1518 1514 1513 1511 1505 1498 1495 1494 1496 1497 1496 1496 1495 1495 1494 1493 1493 1493
1551 1551 1551 1550 1550 1550 1549 1549 1549 1549 1548 1548 1548 1547 1547 1546 1546 1545 1545 1545 1545 1545 1544 1544 1544 1543 1542 1541 1540 1538 1536 1536 1536 1535 1535 1535 1534 1533 1533 1533 1533 1533 1533 1533 1534 1535 1535 1535 1535 1536 1536 1535 1535 1534 1534 1535 1533 1530 1528 1526 1525 1524 1522 1521 1520 1519 1520 1519 1518 1519 1515 1510 1509 1511 1501 1490 1491 1492 1493 1493 1493 1493 1492 1490 1490 1490 1490 1489
1549 1549 1549 1549 1548 1548 1548 1547 1547 1547 1546 1546 1546 1545 1545 1544 1544 1543 1543 1543 1543 1543 1543 1543 1542 1542 1541 1539 1539 1536 1533 1534 1534 1534 1534 1533 1532 1532 1532 1532 1532 1532 1532 1532 1532 1533 1533 1533 1534 1535 1535 1534 1533 1532 1533 1533 1530 1527 1527 1526 1524 1523 1520 1518 1516 1516 1518 1516 1515 1515 1513 1507 1508 1512 1497 1484 1489 1491 1491 1490 1490 1490 1488 1487 1487 1487 1487 1486
1548 1547 1547 1547 1547 1546 1546 1545 1545 1545 1544 1544 1544 1543 1543 1542 1542 1541 1541 1541 1541 1541 1541 1541 1540 1540 1539 1537 1536 1532 1530 1533 1533 1532 1532 1531 1530 1530 1530 1530 1530 1530 1531 1530 1531 1531 1532 1533 1533 1534 1534 1533 1532 1531 1531 1529 1528 1527 1527 1524 1521 1522 1518 1513 1513 1514 1515 1512 1509 1511 1511 1506 1507 1509 1494 1482 1487 1490 1489 1488 1487 1487 1485 1485 1485 1484 1485 1483
1546 1546 1545 1545 1545 1544 1544 1543 1543 1542 1542 1542 1542 1541 1541 1540 1539 1539 1539 1539 1538 1538 1538 1539 1538 1537 1537 1534 1530 1528 1530 1531 1530 1530 1530 1529 1528 1527 1528 1528 1528 1529 1529 1529 1530 1530 1531 1532 1532 1532 1532 1531 1530 1530 1529 1527 1529 1527 1527 1526 1520 1521 1517 1508 1509 1511 1511 1509 1505 1509 1512 1507 1503 1497 1486 1482 1485 1487 1488 1486 1484 1484 1482 1482 1482 1482 1481 1479
1544 1544 1544 1543 1543 1542 1542 1541 1541 1540 1540 1540 1539 1539 1538 1537 1537 1536 1536 1536 1536 1535 1535 1536 1535 1535 1535 1529 1523 1526 1528 1527 1528 1528 1527 1527 1526 1525 1525 1525 1526 1527 1527 1528 1528 1528 1530 1530 1531 1531 1530 1530 1529 1529 1528 1527 1529 1526 1527 1528 1523 1524 1517 1504 1507 1509 1507 1507 1504 1509 1512 1505 1495 1485 1481 1483 1484 1485 1486 1483 1481 1481 1480 1479 1478 1478 1477 1476
1542 1542 1542 1541 1541 1540 1540 1539 1539 1538 1538 1537 1537 1536 1536 1535 1534 1533 1533 1533 1533 1533 1533 1533 1533 1533 1532 1525 1521 1523 1524 1524 1524 1524 1524 1524 1523 1523 1522 1523 1524 1525 1526 1526 1527 1527 1528 1529 1530 1530 1529 1529 1528 1528 1529 1529 1528 1527 1528 1528 1528 1530 1518 1503 1507 1509 1506 1505 1503 1508 1510 1502 1492 1481 1477 1482 1483 1483 1482 1480 1479 1478 1478 1477 1475 1474 1473 1473
1540 1540 1540 1539 1539 1538 1538 1537 1536 1536 1535 1535 1534 1534 1533 1532 1532 1531 1531 1530 1530 1530 1530 1530 1530 1530 1529 1522 1519 1520 1520 1520 1520 1520 1522 1521 1520 1520 1520 1521 1522 1523 1524 1525 1525 1526 1527 1528 1529 1529 1528 1527 1527 1529 1531 1530 1528 1529 1530 1529 1530 1532 1521 1507 1504 1505 1504 1502 1502 1507 1506 1499 1492 1480 1475 1479 1481 1481 1479 1477 1476 1475 1475 1474 1472 1471 1469 1468
1538 1538 1538 1537 1537 1536 1536 1535 1534 1533 1533 1532 1531 1531 1530 1530 1529 1528 1528 1527 1528 1527 1528 1528 1527 1529 1527 1520 1517 1517 1516 1516 1517 1518 1518 1517 1517 1517 1518 1519 1520 1521 1522 1523 1524 1525 1526 1527 1527 1528 1527 1526 1527 1529 1533 1535 1531 1530 1532 1530 1528 1528 1525 1516 1503 1497 1499 1500 1501 1503 1498 1492 1488 1480 1475 1477 1479 1478 1477 1475 1473 1472 1471 1471 1470 1468 1466 1464
1537 1537 1536 1536 1535 1535 1534 1533 1533 1532 1531 1530 1529 1528 1527 1527 1526 1525 1525 1524 1525 1524 1525 1525 1525 1527 1524 1518 1515 1513 1512 1513 1514 1514 1514 1514 1515 1515 1515 1516 1518 1519 1520 1522 1523 1524 1525 1526 1527 1527 1526 1526 1527 1529 1536 1541 1534 1529 1531 1531 1528 1525 1523 1518 1504 1494 1496 1498 1498 1499 1496 1488 1482 1479 1477 1476 1475 1476 1476 1472 1470 1469 1468 1467 1466 1464 1463 1460
1536 1535 1535 1535 1534 1533 1533 1532 1531 1530 1529 1528 1527 1526 1525 1524 1523 1522 1522 1521 1522 1523 1524 1523 1525 1527 1520 1513 1512 1510 1509 1511 1511 1511 1511 1511 1512 1512 1513 1514 1516 1517 1519 1521 1521 1522 1524 1525 1526 1526 1525 1525 1525 1528 1534 1534 1526 1522 1524 1524 1524 1523 1521 1519 1509 1495 1492 1496 1497 1498 1495 1487 1482 1480 1478 1474 1472 1473 1471 1468 1466 1465 1464 1463 1462 1459 1457 1456
1534 1534 1534 1533 1532 1532 1531 1530 1530 1529 1528 1527 1526 1524 1523 1522 1521 1520 1519 1519 1519 1520 1520 1518 1519 1520 1514 1508 1509 1509 1508 1509 1508 1508 1508 1509 1510 1510 1512 1513 1515 1516 1518 1520 1519 1520 1521 1523 1526 1527 1523 1518 1519 1523 1523 1517 1513 1515 1517 1517 1518 1517 1516 1513 1505 1495 1493 1496 1497 1497 1490 1483 1482 1479 1476 1472 1470 1469 1465 1463 1462 1461 1460 1458 1455 1452 1451 1450
1534 1533 1533 1532 1532 1531 1531 1530 1529 1528 1527 1526 1525 1524 1522 1521 1520 1518 1518 1517 1516 1515 1514 1513 1511 1510 1508 1507 1509 1508 1507 1506 1506 1506 1506 1507 1508 1509 1511 1512 1514 1516 1516 1516 1517 1518 1519 1521 1523 1520 1511 1506 1511 1514 1510 1507 1510 1515 1517 1517 1516 1516 1512 1505 1499 1493 1495 1496 1492 1489 1483 1477 1477 1474 1472 1470 1468 1466 1460 1457 1456 1455 1455 1453 1449 1445 1443 1443
1533 1533 1533 1532 1532 1531 1530 1529 1528 1527 1526 1525 1524 1523 1522 1522 1521 1519 1517 1514 1512 1512 1510 1510 1510 1507 1505 1506 1506 1506 1505 1504 1503 1503 1505 1505 1506 1507 1509 1511 1513 1514 1514 1514 1517 1517 1518 1520 1519 1508 1498 1499 1506 1508 1508 1510 1512 1514 1516 1516 1516 1517 1508 1498 1496 1491 1494 1497 1489 1485 1480 1473 1473 1470 1468 1467 1465 1462 1455 1451 1450 1449 1449 1446 1443 1439 1436 1435
1533 1532 1532 1532 1531 1530 1530 1529 1528 1527 1526 1525 1524 1523 1523 1523 1522 1521 1518 1514 1509 1508 1508 1506 1506 1503 1502 1503 1502 1503 1504 1502 1500 1500 1502 1503 1503 1505 1506 1509 1510 1510 1513 1515 1516 1518 1520 1519 1511 1499 1496 1502 1506 1507 1511 1513 1513 1515 1516 1517 1516 1513 1503 1494 1494 1491 1494 1496 1486 1483 1478 1469 1468 1466 1462 1460 1457 1454 1451 1447 1446 1444 1444 1440 1436 1433 1430 1428
1532 1531 1531 1530 1530 1530 1529 1528 1528 1527 1526 1526 1524 1524 1523 1522 1521 1520 1519 1515 1507 1503 1503 1501 1500 1498 1498 1498 1497 1499 1500 1498 1498 1497 1499 1501 1501 1504 1504 1506 1509 1510 1513 1512 1510 1513 1516 1512 1502 1497 1501 1505 1505 1507 1511 1512 1514 1514 1513 1516 1512 1507 1503 1496 1492 1491 1494 1494 1485 1483 1475 1461 1462 1459 1454 1452 1446 1446 1448 1443 1441 1440 1437 1432 1428 1428 1427 1425
1531 1530 1530 1529 1530 1529 1528 1529 1528 1527 1526 1525 1525 1524 1523 1522 1521 1519 1518 1514 1506 1500 1497 1495 1494 1493 1492 1492 1493 1494 1494 1494 1495 1494 1496 1498 1499 1502 1502 1504 1508 1510 1508 1504 1502 1503 1503 1500 1497 1500 1503 1504 1505 1507 1510 1511 1510 1507 1509 1513 1505 1499 1499 1497 1494 1494 1495 1492 1487 1486 1468 1444 1445 1451 1445 1443 1442 1442 1443 1440 1436 1434 1429 1425 1423 1424 1424 1422
1530 1530 1529 1529 1529 1528 1528 1528 1527 1527 1526 1525 1525 1524 1523 1522 1520 1520 1518 1514 1506 1497 1492 1490 1489 1487 1487 1488 1490 1491 1492 1491 1491 1491 1493 1494 1496 1499 1501 1502 1504 1504 1501 1501 1503 1502 1498 1496 1496 1499 1501 1503 1505 1506 1508 1509 1504 1501 1504 1503 1495 1493 1496 1497 1498 1500 1499 1494 1489 1491 1475 1439 1430 1443 1442 1437 1440 1439 1437 1437 1432 1425 1421 1421 1422 1421 1420 1418
1529 1529 1528 1528 1527 1527 1528 1527 1527 1527 1525 1525 1525 1523 1523 1522 1520 1520 1518 1517 1508 1493 1488 1488 1486 1485 1484 1486 1487 1489 1492 1490 1487 1489 1491 1492 1493 1496 1498 1500 1499 1498 1498 1500 1503 1500 1496 1493 1493 1497 1498 1501 1506 1506 1503 1504 1502 1499 1497 1493 1492 1495 1498 1497 1499 1503 1501 1495 1491 1494 1491 1463 1431 1432 1438 1435 1437 1435 1431 1432 1427 1419 1418 1419 1420 1418 1416 1415
1527 1527 1527 1527 1526 1526 1526 1525 1526 1526 1525 1525 1523 1524 1523 1521 1522 1520 1518 1521 1507 1485 1483 1486 1484 1484 1483 1484 1486 1488 1491 1488 1484 1487 1488 1489 1492 1493 1495 1496 1496 1495 1496 1500 1501 1494 1490 1490 1492 1495 1497 1501 1506 1502 1495 1498 1503 1497 1491 1489 1491 1494 1495 1496 1499 1502 1499 1495 1495 1492 1496 1489 1450 1425 1431 1431 1432 1434 1430 1428 1422 1417 1417 1417 1418 1417 1414 1413
1526 1526 1525 1525 1525 1524 1525 1524 1525 1525 1525 1524 1523 1524 1522 1521 1523 1519 1523 1529 1503 1478 1481 1483 1482 1483 1482 1484 1485 1485 1487 1485 1485 1487 1486 1489 1490 1491 1492 1492 1493 1494 1493 1497 1495 1488 1486 1488 1490 1492 1497 1500 1497 1491 1488 1495 1498 1492 1491 1492 1491 1492 1493 1496 1496 1499 1502 1498 1498 1492 1492 1496 1459 1422 1429 1434 1432 1434 1428 1423 1418 1415 1417 1415 1415 1415 1412 1412
1524 1523 1523 1524 1523 1522 1522 1522 1523 1524 1523 1523 1523 1523 1522 1523 1522 1519 1532 1531 1495 1475 1482 1481 1481 1483 1482 1484 1485 1484 1485 1484 1485 1487 1487 1489 1489 1490 1491 1490 1492 1493 1492 1493 1489 1485 1486 1486 1487 1489 1493 1492 1486 1486 1488 1492 1491 1489 1493 1492 1492 1495 1495 1498 1495 1494 1501 1495 1491 1492 1490 1488 1454 1417 1428 1438 1433 1429 1420 1417 1417 1415 1417 1415 1413 1413 1411 1412
1521 1521 1522 1522 1521 1521 1520 1520 1522 1522 1522 1523 1522 1522 1522 1522 1521 1527 1536 1520 1489 1480 1483 1480 1482 1484 1482 1485 1486 1485 1486 1485 1485 1487 1488 1489 1489 1490 1491 1490 1491 1491 1491 1492 1487 1485 1485 1486 1487 1485 1484 1482 1482 1488 1490 1490 1490 1490 1492 1490 1492 1495 1494 1499 1497 1494 1499 1487 1477 1479 1479 1483 1459 1423 1425 1431 1425 1423 1416 1414 1415 1413 1415 1413 1411 1411 1410 1411
1518 1519 1520 1519 1518 1519 1518 1518 1520 1521 1521 1521 1521 1522 1522 1521 1524 1531 1522 1499 1488 1486 1481 1482 1485 1484 1484 1486 1486 1485 1486 1485 1486 1487 1487 1489 1490 1490 1491 1490 1491 1492 1492 1491 1487 1484 1485 1485 1484 1479 1477 1479 1481 1486 1489 1491 1491 1490 1492 1491 1492 1495 1494 1499 1500 1500 1500 1480 1467 1468 1472 1480 1460 1425 1423 1424 1419 1421 1418 1415 1413 1412 1413 1411 1411 1411 1409 1409
1515 1516 1517 1516 1516 1516 1517 1517 1518 1519 1519 1519 1521 1520 1521 1524 1525 1519 1504 1491 1490 1486 1480 1484 1485 1483 1485 1486 1484 1485 1485 1485 1484 1485 1486 1489 1490 1489 1489 1487 1488 1490 1489 1486 1484 1481 1479 1478 1477 1474 1475 1477 1478 1483 1489 1491 1490 1491 1493 1494 1498 1500 1499 1500 1500 1501 1495 1474 1465 1471 1474 1471 1445 1419 1421 1422 1415 1417 1416 1414 1412 1411 1413 1411 1411 1411 1408 1408
1512 1513 1513 1513 1513 1513 1514 1515 1516 1518 1518 1518 1520 1518 1522 1527 1516 1502 1497 1494 1489 1482 1481 1484 1483 1484 1486 1483 1483 1484 1484 1483 1482 1484 1485 1488 1491 1488 1486 1486 1485 1486 1485 1486 1485 1478 1473 1472 1474 1476 1473 1471 1472 1479 1484 1483 1485 1490 1488 1490 1498 1501 1502 1501 1498 1496 1486 1468 1467 1474 1473 1460 1434 1415 1415 1412 1408 1409 1410 1412 1411 1410 1411 1410 1410 1410 1408 1407
1508 1509 1509 1510 1510 1510 1512 1513 1513 1515 1517 1517 1518 1518 1522 1520 1503 1493 1496 1493 1485 1482 1482 1483 1484 1486 1485 1483 1482 1481 1481 1480 1480 1483 1485 1488 1492 1488 1484 1485 1485 1485 1484 1488 1487 1482 1479 1472 1467 1468 1465 1464 1466 1467 1467 1468 1476 1481 1477 1479 1485 1484 1486 1487 1482 1477 1467 1459 1467 1476 1468 1449 1429 1415 1410 1407 1406 1408 1408 1409 1409 1409 1410 1410 1409 1409 1408 1407
1505 1505 1506 1506 1506 1507 1508 1510 1511 1513 1515 1515 1517 1518 1516 1506 1494 1493 1494 1489 1485 1484 1482 1483 1485 1486 1485 1484 1483 1480 1478 1478 1479 1483 1485 1486 1488 1484 1480 1480 1482 1484 1485 1488 1484 1482 1483 1470 1459 1461 1460 1460 1463 1460 1460 1465 1472 1477 1476 1478 1477 1470 1468 1470 1465 1460 1461 1462 1464 1466 1456 1436 1421 1411 1408 1409 1408 1407 1408 1407 1408 1409 1408 1409 1409 1408 1407 1406
1502 1502 1502 1501 1502 1504 1505 1507 1508 1510 1512 1514 1517 1515 1504 1494 1491 1492 1489 1486 1486 1485 1484 1486 1485 1486 1486 1483 1482 1481 1478 1479 1482 1482 1483 1486 1484 1480 1479 1476 1476 1477 1477 1479 1477 1474 1476 1465 1457 1461 1461 1461 1463 1461 1462 1464 1467 1475 1479 1474 1468 1465 1464 1466 1465 1460 1467 1469 1453 1443 1439 1429 1419 1409 1403 1406 1406 1405 1406 1406 1407 1407 1406 1407 1407 1406 1406 1404
1500 1499 1498 1497 1499 1502 1503 1504 1506 1507 1509 1512 1511 1503 1493 1488 1488 1487 1486 1486 1486 1485 1487 1489 1486 1484 1485 1482 1480 1481 1480 1480 1483 1482 1483 1484 1479 1475 1475 1471 1470 1471 1467 1468 1469 1467 1469 1462 1455 1459 1462 1462 1464 1464 1463 1463 1463 1470 1473 1466 1463 1466 1466 1470 1474 1468 1469 1466 1446 1433 1430 1425 1425 1416 1403 1403 1405 1403 1404 1405 1406 1406 1406 1406 1404 1402 1403 1402
1497 1497 1494 1492 1496 1499 1500 1502 1504 1504 1507 1508 1503 1493 1487 1485 1484 1483 1484 1485 1485 1485 1488 1491 1487 1483 1484 1483 1480 1479 1480 1481 1483 1483 1483 1481 1474 1469 1469 1467 1466 1467 1465 1466 1469 1467 1469 1467 1457 1456 1461 1462 1462 1464 1463 1462 1462 1464 1465 1463 1465 1468 1466 1469 1475 1472 1468 1463 1448 1437 1430 1425 1424 1413 1402 1403 1403 1401 1403 1404 1405 1404 1404 1404 1402 1400 1400 1398
1495 1495 1491 1489 1493 1495 1496 1499 1500 1501 1504 1503 1497 1489 1483 1481 1480 1480 1482 1482 1483 1486 1487 1487 1486 1483 1483 1482 1480 1479 1478 1479 1481 1482 1481 1478 1472 1465 1465 1465 1465 1466 1466 1468 1470 1467 1468 1472 1464 1456 1459 1463 1462 1463 1462 1460 1463 1465 1465 1465 1466 1467 1464 1464 1466 1463 1462 1458 1450 1443 1436 1425 1415 1404 1400 1403 1401 1400 1401 1402 1402 1402 1400 1400 1399 1398 1398 1398
1494 1494 1489 1487 1491 1491 1492 1496 1497 1498 1498 1494 1490 1484 1480 1479 1479 1478 1479 1480 1480 1482 1482 1481 1482 1482 1480 1478 1478 1477 1476 1477 1477 1478 1478 1474 1469 1463 1462 1462 1463 1465 1467 1468 1470 1469 1470 1472 1467 1459 1460 1464 1461 1458 1457 1456 1458 1462 1464 1464 1464 1463 1461 1461 1460 1455 1454 1454 1450 1447 1438 1424 1411 1402 1397 1398 1399 1399 1399 1399 1399 1398 1397 1397 1397 1398 1399 1400
1493 1493 1487 1486 1489 1489 1490 1493 1493 1492 1490 1486 1483 1480 1479 1479 1477 1476 1477 1478 1478 1477 1477 1478 1478 1479 1477 1476 1476 1475 1476 1475 1473 1474 1473 1470 1467 1464 1459 1458 1460 1462 1467 1470 1470 1470 1470 1469 1467 1464 1462 1460 1453 1449 1451 1452 1451 1455 1457 1456 1456 1456 1459 1462 1457 1447 1446 1446 1442 1440 1433 1419 1411 1404 1395 1393 1398 1399 1399 1399 1398 1396 1396 1397 1397 1398 1399 1399
1491 1489 1485 1485 1487 1487 1488 1489 1487 1486 1485 1481 1478 1477 1477 1476 1474 1474 1475 1476 1477 1476 1476 1477 1476 1475 1475 1474 1473 1473 1474 1473 1471 1471 1469 1464 1463 1461 1456 1456 1458 1458 1461 1464 1463 1462 1464 1466 1466 1463 1457 1452 1446 1446 1450 1451 1450 1453 1454 1452 1452 1452 1455 1457 1451 1441 1439 1438 1433 1434 1430 1415 1406 1404 1398 1395 1396 1397 1398 1400 1398 1398 1398 1398 1397 1397 1397 1397
1487 1485 1483 1484 1485 1485 1486 1485 1483 1482 1479 1475 1474 1474 1475 1474 1472 1472 1473 1474 1475 1476 1475 1474 1473 1472 1471 1470 1471 1471 1471 1470 1466 1465 1464 1461 1458 1456 1455 1456 1457 1457 1459 1460 1458 1459 1463 1464 1463 1459 1453 1447 1444 1444 1447 1449 1452 1454 1452 1451 1450 1448 1446 1445 1442 1440 1440 1437 1434 1434 1427 1412 1402 1402 1401 1399 1398 1396 1394 1394 1395 1396 1396 1396 1397 1397 1396 1395
1485 1483 1482 1483 1484 1483 1481 1478 1477 1477 1476 1474 1474 1473 1473 1472 1471 1470 1470 1471 1472 1472 1472 1471 1470 1469 1468 1468 1468 1468 1469 1469 1463 1458 1459 1459 1455 1453 1454 1455 1455 1456 1457 1456 1456 1457 1459 1457 1458 1460 1458 1451 1446 1444 1444 1446 1450 1450 1446 1444 1444 1444 1445 1444 1444 1446 1443 1438 1436 1433 1423 1412 1406 1404 1404 1403 1401 1398 1393 1389 1389 1391 1393 1394 1394 1394 1394 1394
1484 1482 1480 1480 1482 1481 1477 1474 1474 1475 1475 1474 1473 1472 1472 1470 1467 1466 1467 1468 1468 1469 1469 1468 1467 1468 1467 1468 1468 1467 1468 1469 1465 1459 1458 1457 1455 1453 1454 1455 1455 1454 1454 1454 1454 1455 1455 1451 1451 1457 1458 1454 1448 1441 1437 1439 1442 1442 1440 1439 1439 1440 1442 1443 1443 1443 1437 1429 1427 1424 1416 1410 1408 1407 1406 1404 1401 1399 1395 1390 1385 1385 1387 1391 1393 1394 1395 1396
1484 1482 1479 1478 1479 1478 1475 1473 1474 1474 1474 1474 1472 1470 1469 1467 1464 1464 1464 1465 1465 1466 1466 1465 1465 1467 1467 1467 1468 1467 1465 1466 1465 1462 1459 1457 1455 1454 1455 1456 1456 1456 1455 1455 1455 1457 1460 1455 1450 1449 1448 1445 1441 1434 1430 1432 1435 1436 1436 1435 1436 1436 1436 1438 1437 1433 1427 1420 1414 1411 1408 1404 1404 1406 1404 1401 1400 1397 1394 1391 1387 1383 1384 1389 1394 1396 1395 1395
1484 1482 1479 1478 1477 1475 1473 1472 1473 1472 1471 1472 1470 1467 1465 1464 1463 1463 1462 1462 1461 1462 1463 1463 1463 1464 1464 1464 1465 1464 1462 1461 1462 1461 1460 1460 1458 1457 1456 1455 1457 1457 1455 1456 1457 1459 1461 1457 1450 1447 1444 1442 1439 1435 1433 1434 1433 1433 1433 1432 1433 1433 1432 1434 1431 1422 1420 1417 1407 1402 1403 1400 1399 1401 1398 1395 1396 1394 1393 1393 1392 1391 1391 1393 1395 1395 1394 1394
1482 1480 1477 1478 1477 1475 1473 1472 1473 1472 1471 1471 1469 1466 1464 1463 1463 1463 1461 1459 1459 1460 1461 1461 1461 1461 1462 1463 1464 1463 1461 1460 1460 1460 1461 1464 1465 1463 1459 1456 1457 1458 1457 1458 1459 1459 1461 1456 1449 1446 1444 1441 1440 1438 1436 1435 1432 1430 1431 1430 1430 1429 1427 1426 1420 1414 1416 1414 1403 1401 1402 1397 1395 1397 1397 1397 1400 1399 1399 1399 1399 1399 1399 1398 1397 1396 1396 1396
1480 1479 1477 1477 1477 1475 1474 1473 1473 1473 1472 1471 1469 1466 1464 1463 1462 1462 1461 1460 1460 1459 1458 1458 1460 1462 1463 1464 1465 1466 1465 1463 1463 1464 1466 1470 1471 1468 1466 1462 1459 1458 1459 1460 1460 1459 1460 1455 1447 1446 1445 1442 1441 1440 1437 1436 1433 1430 1429 1428 1427 1426 1423 1419 1413 1412 1413 1408 1402 1404 1404 1399 1401 1407 1408 1409 1410 1408 1405 1404 1403 1404 1405 1403 1401 1399 1398 1398
1479 1479 1478 1478 1477 1474 1474 1474 1473 1473 1472 1471 1469 1466 1463 1463 1462 1461 1461 1462 1461 1459 1457 1460 1463 1464 1464 1465 1466 1468 1468 1466 1467 1468 1470 1473 1472 1470 1471 1468 1463 1461 1461 1463 1461 1459 1459 1454 1447 1448 1450 1446 1441 1438 1437 1437 1435 1432 1430 1427 1425 1423 1420 1417 1414 1413 1412 1406 1403 1404 1401 1401 1411 1419 1419 1416 1413 1410 1408 1407 1409 1410 1409 1407 1404 1402 1401 1400
1478 1479 1479 1480 1477 1474 1474 1474 1473 1473 1472 1469 1467 1464 1462 1462 1462 1461 1461 1461 1460 1460 1462 1465 1466 1465 1464 1465 1467 1468 1468 1468 1469 1469 1470 1473 1472 1472 1472 1470 1467 1466 1463 1462 1461 1460 1460 1457 1452 1452 1451 1444 1439 1439 1438 1435 1434 1434 1432 1427 1423 1420 1418 1416 1413 1410 1408 1405 1403 1402 1405 1413 1422 1423 1418 1415 1414 1414 1413 1413 1413 1412 1411 1409 1408 1405 1403 1401
1477 1478 1479 1480 1478 1475 1474 1475 1474 1474 1471 1467 1466 1465 1464 1464 1464 1464 1463 1461 1460 1462 1464 1466 1466 1466 1466 1467 1467 1468 1468 1468 1469 1469 1469 1469 1468 1468 1469 1467 1467 1468 1465 1462 1461 1459 1459 1457 1456 1456 1451 1443 1438 1437 1436 1437 1438 1433 1424 1418 1416 1414 1412 1408 1405 1406 1408 1407 1406 1410 1418 1427 1427 1422 1418 1416 1416 1416 1415 1415 1414 1413 1411 1410 1409 1407 1403 1401